Time,TemperatureF,DewpointF,PressureIn,WindDirection,WindDirectionDegrees,WindSpeedMPH,WindSpeedGustMPH,Humidity,HourlyPrecipIn,Conditions,Clouds,dailyrainin,SoftwareType,DateUTC
2013-03-08 00:00:00,35.3,35.3,20.00,WSW,245,0.0,6.0,-999,0.00,,,0.00,VWS V14.01,2013-03-08 05:00:00,
2013-03-08 00:01:00,35.4,35.4,20.00,WSW,245,0.0,0.0,-999,0.00,,,0.00,VWS V14.01,2013-03-08 05:01:00,
2013-03-08 00:04:00,35.5,35.5,20.00,WSW,245,0.0,0.0,-999,0.00,,,0.00,VWS V14.01,2013-03-08 05:04:00,
2013-03-08 00:09:00,34.8,34.8,20.00,WSW,245,0.0,0.0,-999,0.00,,,0.00,VWS V14.01,2013-03-08 05:09:00,
2013-03-08 00:14:00,34.6,34.6,20.00,WSW,245,0.0,0.0,-999,0.00,,,0.00,VWS V14.01,2013-03-08 05:14:00,
2013-03-08 00:19:00,34.7,34.7,20.00,WSW,245,0.0,0.0,-999,0.00,,,0.00,VWS V14.01,2013-03-08 05:19:00,
2013-03-08 00:24:00,34.1,34.1,20.00,WSW,245,0.0,0.0,-999,0.00,,,0.00,VWS V14.01,2013-03-08 05:24:00,
2013-03-08 00:29:00,33.7,33.7,20.00,WSW,245,0.0,0.0,-999,0.00,,,0.00,VWS V14.01,2013-03-08 05:29:00,
2013-03-08 00:34:00,33.3,33.3,20.00,WSW,245,0.0,0.0,-999,0.00,,,0.00,VWS V14.01,2013-03-08 05:34:00,
2013-03-08 00:39:00,32.5,32.5,20.00,WSW,245,0.0,0.0,-999,0.00,,,0.00,VWS V14.01,2013-03-08 05:39:00,
2013-03-08 00:45:00,32.3,32.3,20.00,WSW,245,0.0,0.0,-999,0.00,,,0.00,VWS V14.01,2013-03-08 05:45:00,
2013-03-08 00:50:00,32.2,32.2,20.00,WSW,245,0.0,0.0,-999,0.00,,,0.00,VWS V14.01,2013-03-08 05:50:00,
2013-03-08 00:55:00,32.5,32.5,20.00,WSW,247,0.0,0.0,-999,0.00,,,0.00,VWS V14.01,2013-03-08 05:55:00,
2013-03-08 01:00:00,32.4,32.4,20.00,WSW,247,0.0,0.0,-999,0.00,,,0.00,VWS V14.01,2013-03-08 06:00:00,
2013-03-08 01:05:00,32.0,32.0,20.00,WSW,247,0.0,0.0,-999,0.00,,,0.00,VWS V14.01,2013-03-08 06:05:00,
2013-03-08 01:10:00,32.5,32.5,20.00,WSW,247,0.0,0.0,-999,0.00,,,0.00,VWS V14.01,2013-03-08 06:10:00,
2013-03-08 01:15:00,33.5,33.5,20.00,WSW,244,0.0,0.0,-999,0.00,,,0.00,VWS V14.01,2013-03-08 06:15:00,
2013-03-08 01:20:00,33.5,33.5,20.00,WSW,244,0.0,0.0,-999,0.00,,,0.00,VWS V14.01,2013-03-08 06:20:00,
2013-03-08 01:25:00,32.7,32.7,20.00,WSW,244,0.0,0.0,-999,0.00,,,0.00,VWS V14.01,2013-03-08 06:25:00,
2013-03-08 01:30:00,32.6,32.6,20.00,WSW,244,0.0,0.0,-999,0.00,,,0.00,VWS V14.01,2013-03-08 06:30:00,
2013-03-08 01:35:00,33.1,33.1,20.00,WSW,244,0.0,0.0,-999,0.00,,,0.00,VWS V14.01,2013-03-08 06:35:00,
2013-03-08 01:40:00,33.1,33.1,20.00,WSW,244,0.0,0.0,-999,0.00,,,0.00,VWS V14.01,2013-03-08 06:40:00,
2013-03-08 01:46:00,32.7,32.7,20.00,WSW,244,0.0,0.0,-999,0.00,,,0.00,VWS V14.01,2013-03-08 06:46:00,
2013-03-08 01:51:00,33.3,33.3,20.00,WSW,243,0.0,0.0,-999,0.00,,,0.00,VWS V14.01,2013-03-08 06:51:00,
2013-03-08 01:56:00,33.2,33.2,20.00,WSW,243,0.0,0.0,-999,0.00,,,0.00,VWS V14.01,2013-03-08 06:56:00,
2013-03-08 02:01:00,33.0,33.0,20.00,WSW,243,0.0,0.0,-999,0.00,,,0.00,VWS V14.01,2013-03-08 07:01:00,
2013-03-08 02:06:00,34.2,34.2,20.00,North,0,0.0,3.0,-999,0.00,,,0.00,VWS V14.01,2013-03-08 07:06:00,
2013-03-08 02:11:00,36.2,36.2,20.00,North,0,0.0,11.0,-999,0.00,,,0.00,VWS V14.01,2013-03-08 07:11:00,
2013-03-08 02:16:00,36.7,36.7,19.99,NW,313,6.0,11.0,-999,0.00,,,0.00,VWS V14.01,2013-03-08 07:16:00,
2013-03-08 02:21:00,36.7,36.7,20.00,NNE,28,0.0,11.0,-999,0.00,,,0.00,VWS V14.01,2013-03-08 07:21:00,
2013-03-08 02:26:00,37.2,37.2,20.00,ENE,72,0.0,11.0,-999,0.00,,,0.00,VWS V14.01,2013-03-08 07:26:00,
2013-03-08 02:31:00,36.8,36.8,19.99,North,11,4.0,7.0,-999,0.00,,,0.00,VWS V14.01,2013-03-08 07:31:00,
2013-03-08 02:36:00,37.0,37.0,20.00,WNW,283,0.0,7.0,-999,0.00,,,0.00,VWS V14.01,2013-03-08 07:36:00,
2013-03-08 02:41:00,37.5,37.5,20.00,NNE,14,7.0,7.0,-999,0.00,,,0.00,VWS V14.01,2013-03-08 07:41:00,
2013-03-08 02:47:00,37.3,37.3,20.00,NE,41,0.0,7.0,-999,0.00,,,0.00,VWS V14.01,2013-03-08 07:47:00,
2013-03-08 02:52:00,36.9,36.9,20.00,NNW,334,0.0,7.0,-999,0.00,,,0.00,VWS V14.01,2013-03-08 07:52:00,
2013-03-08 02:57:00,37.2,37.2,20.00,NNE,33,0.0,7.0,-999,0.00,,,0.00,VWS V14.01,2013-03-08 07:57:00,
2013-03-08 03:02:00,37.8,37.8,20.00,NE,41,0.0,4.0,-999,0.00,,,0.00,VWS V14.01,2013-03-08 08:02:00,
2013-03-08 03:07:00,38.1,38.1,19.99,SSW,196,0.0,6.0,-999,0.00,,,0.00,VWS V14.01,2013-03-08 08:07:00,
2013-03-08 03:12:00,37.5,37.5,20.00,ENE,58,0.0,6.0,-999,0.00,,,0.00,VWS V14.01,2013-03-08 08:12:00,
2013-03-08 03:17:00,37.8,37.8,20.00,NNE,14,0.0,6.0,-999,0.00,,,0.00,VWS V14.01,2013-03-08 08:17:00,
2013-03-08 03:22:00,37.5,37.5,20.00,ENE,58,0.0,6.0,-999,0.00,,,0.00,VWS V14.01,2013-03-08 08:22:00,
2013-03-08 03:27:00,38.6,38.6,20.00,South,178,0.0,6.0,-999,0.00,,,0.00,VWS V14.01,2013-03-08 08:27:00,
2013-03-08 03:32:00,37.6,37.6,20.00,WSW,253,1.0,5.0,-999,0.00,,,0.00,VWS V14.01,2013-03-08 08:32:00,
2013-03-08 03:37:00,37.9,37.9,20.00,NNE,15,5.0,8.0,-999,0.00,,,0.00,VWS V14.01,2013-03-08 08:37:00,
2013-03-08 03:42:00,38.3,38.3,20.00,NE,40,6.0,8.0,-999,0.00,,,0.00,VWS V14.01,2013-03-08 08:42:00,
2013-03-08 03:48:00,38.2,38.2,20.00,SW,235,0.0,8.0,-999,0.00,,,0.00,VWS V14.01,2013-03-08 08:48:00,
2013-03-08 03:53:00,37.3,37.3,20.00,SW,235,0.0,8.0,-999,0.00,,,0.00,VWS V14.01,2013-03-08 08:53:00,
2013-03-08 03:58:00,36.7,36.7,20.00,SW,235,0.0,8.0,-999,0.00,,,0.00,VWS V14.01,2013-03-08 08:58:00,
2013-03-08 04:03:00,37.5,37.5,20.00,ESE,112,0.0,5.0,-999,0.00,,,0.00,VWS V14.01,2013-03-08 09:03:00,
2013-03-08 04:08:00,38.0,38.0,19.99,ENE,62,0.0,5.0,-999,0.00,,,0.00,VWS V14.01,2013-03-08 09:08:00,
2013-03-08 04:13:00,37.8,37.8,20.00,West,265,0.0,5.0,-999,0.00,,,0.00,VWS V14.01,2013-03-08 09:13:00,
2013-03-08 04:18:00,38.4,38.4,20.00,NNE,28,0.0,5.0,-999,0.00,,,0.00,VWS V14.01,2013-03-08 09:18:00,
2013-03-08 04:23:00,39.1,39.1,19.99,SW,227,0.0,5.0,-999,0.00,,,0.00,VWS V14.01,2013-03-08 09:23:00,
2013-03-08 04:28:00,40.0,40.0,20.00,SW,224,4.0,11.0,-999,0.00,,,0.00,VWS V14.01,2013-03-08 09:28:00,
2013-03-08 04:33:00,39.5,39.5,20.00,NNE,14,0.0,5.0,-999,0.00,,,0.00,VWS V14.01,2013-03-08 09:33:00,
2013-03-08 04:38:00,38.7,38.7,20.00,East,84,0.0,5.0,-999,0.00,,,0.00,VWS V14.01,2013-03-08 09:38:00,
2013-03-08 04:43:00,39.1,39.1,20.00,South,170,0.0,6.0,-999,0.00,,,0.00,VWS V14.01,2013-03-08 09:43:00,
2013-03-08 04:48:00,37.6,37.6,20.00,NNE,22,1.0,6.0,-999,0.00,,,0.00,VWS V14.01,2013-03-08 09:48:00,
2013-03-08 04:53:00,38.6,38.6,20.00,ENE,69,0.0,9.0,-999,0.00,,,0.00,VWS V14.01,2013-03-08 09:53:00,
2013-03-08 04:59:00,38.7,38.7,20.00,ENE,77,1.0,9.0,-999,0.00,,,0.00,VWS V14.01,2013-03-08 09:59:00,
2013-03-08 05:04:00,38.1,38.1,19.99,East,79,0.0,1.0,-999,0.00,,,0.00,VWS V14.01,2013-03-08 10:04:00,
2013-03-08 05:09:00,38.8,38.8,20.00,NNE,12,1.0,7.0,-999,0.00,,,0.00,VWS V14.01,2013-03-08 10:09:00,
2013-03-08 05:14:00,38.4,38.4,19.99,NE,52,4.0,10.0,-999,0.00,,,0.00,VWS V14.01,2013-03-08 10:14:00,
2013-03-08 05:19:00,38.8,38.8,20.00,NE,53,0.0,10.0,-999,0.00,,,0.00,VWS V14.01,2013-03-08 10:19:00,
2013-03-08 05:24:00,38.5,38.5,19.99,NE,49,0.0,10.0,-999,0.00,,,0.00,VWS V14.01,2013-03-08 10:24:00,
2013-03-08 05:29:00,37.5,37.5,19.99,NW,310,0.0,10.0,-999,0.00,,,0.00,VWS V14.01,2013-03-08 10:29:00,
2013-03-08 05:34:00,37.1,37.1,20.00,North,3,0.0,4.0,-999,0.00,,,0.00,VWS V14.01,2013-03-08 10:34:00,
2013-03-08 05:39:00,37.4,37.4,20.00,NE,49,0.0,7.0,-999,0.00,,,0.00,VWS V14.01,2013-03-08 10:39:00,
2013-03-08 05:44:00,37.4,37.4,19.99,North,359,0.0,9.0,-999,0.00,,,0.00,VWS V14.01,2013-03-08 10:44:00,
2013-03-08 05:49:00,38.4,38.4,19.99,WSW,245,0.0,12.0,-999,0.00,,,0.00,VWS V14.01,2013-03-08 10:49:00,
2013-03-08 05:54:00,40.3,40.3,19.99,SSW,205,0.0,12.0,-999,0.00,,,0.00,VWS V14.01,2013-03-08 10:54:00,
2013-03-08 05:59:00,39.8,39.8,20.00,South,173,2.0,12.0,-999,0.00,,,0.00,VWS V14.01,2013-03-08 10:59:00,
2013-03-08 06:05:00,39.2,39.2,19.99,South,169,2.0,4.0,-999,0.00,,,0.00,VWS V14.01,2013-03-08 11:05:00,
2013-03-08 06:10:00,38.9,38.9,20.00,South,182,2.0,4.0,-999,0.00,,,0.00,VWS V14.01,2013-03-08 11:10:00,
2013-03-08 06:15:00,39.2,39.2,19.99,ENE,65,4.0,5.0,-999,0.00,,,0.00,VWS V14.01,2013-03-08 11:15:00,
2013-03-08 06:20:00,38.4,38.4,20.00,East,80,0.0,8.0,-999,0.00,,,0.00,VWS V14.01,2013-03-08 11:20:00,
2013-03-08 06:25:00,37.9,37.9,20.00,WNW,290,0.0,8.0,-999,0.00,,,0.00,VWS V14.01,2013-03-08 11:25:00,
2013-03-08 06:30:00,37.4,37.4,20.00,North,1,0.0,1.0,-999,0.00,,,0.00,VWS V14.01,2013-03-08 11:30:00,
2013-03-08 06:35:00,39.0,39.0,20.00,WNW,300,3.0,8.0,-999,0.00,,,0.00,VWS V14.01,2013-03-08 11:35:00,
2013-03-08 06:40:00,37.3,37.3,20.00,North,10,0.0,8.0,-999,0.00,,,0.00,VWS V14.01,2013-03-08 11:40:00,
2013-03-08 06:45:00,37.8,37.8,19.99,NE,56,5.0,8.0,-999,0.00,,,0.00,VWS V14.01,2013-03-08 11:45:00,
2013-03-08 06:50:00,40.3,40.3,19.99,NNE,21,4.0,11.0,-999,0.00,,,0.00,VWS V14.01,2013-03-08 11:50:00,
2013-03-08 06:55:00,37.3,37.3,20.00,North,0,0.0,11.0,-999,0.00,,,0.00,VWS V14.01,2013-03-08 11:55:00,
2013-03-08 07:00:00,36.7,36.7,20.00,SW,228,4.0,4.0,-999,0.00,,,0.00,VWS V14.01,2013-03-08 12:00:00,
2013-03-08 07:05:00,38.8,38.8,20.00,SW,214,0.0,5.0,-999,0.00,,,0.00,VWS V14.01,2013-03-08 12:05:00,
2013-03-08 07:10:00,37.6,37.6,19.99,East,86,0.0,12.0,-999,0.00,,,0.00,VWS V14.01,2013-03-08 12:10:00,
2013-03-08 07:16:00,37.8,37.8,20.00,North,9,0.0,12.0,-999,0.00,,,0.00,VWS V14.01,2013-03-08 12:16:00,
2013-03-08 07:21:00,36.5,36.5,20.00,NNW,334,0.0,12.0,-999,0.00,,,0.00,VWS V14.01,2013-03-08 12:21:00,
2013-03-08 07:26:00,36.7,36.7,20.00,NW,324,0.0,12.0,-999,0.00,,,0.00,VWS V14.01,2013-03-08 12:26:00,
2013-03-08 07:31:00,37.5,37.5,20.00,ENE,67,3.0,3.0,-999,0.00,,,0.00,VWS V14.01,2013-03-08 12:31:00,
2013-03-08 07:36:00,38.0,38.0,20.00,NE,34,1.0,9.0,-999,0.00,,,0.00,VWS V14.01,2013-03-08 12:36:00,
2013-03-08 07:41:00,38.7,38.7,20.00,North,0,1.0,9.0,-999,0.00,,,0.00,VWS V14.01,2013-03-08 12:41:00,
2013-03-08 07:46:00,38.8,38.8,20.00,North,359,6.0,13.0,-999,0.00,,,0.00,VWS V14.01,2013-03-08 12:46:00,
2013-03-08 07:51:00,38.8,38.8,20.00,NNE,27,1.0,13.0,-999,0.00,,,0.00,VWS V14.01,2013-03-08 12:51:00,
2013-03-08 07:56:00,38.0,38.0,20.00,WNW,290,3.0,17.0,-999,0.00,,,0.00,VWS V14.01,2013-03-08 12:56:00,
2013-03-08 08:01:00,37.8,37.8,20.00,WNW,295,3.0,5.0,-999,0.00,,,0.00,VWS V14.01,2013-03-08 13:01:00,
2013-03-08 08:06:00,38.3,38.3,19.99,WNW,302,2.0,11.0,-999,0.00,,,0.00,VWS V14.01,2013-03-08 13:06:00,
2013-03-08 08:11:00,39.5,39.5,20.00,NNE,12,9.0,15.0,-999,0.00,,,0.00,VWS V14.01,2013-03-08 13:11:00,
2013-03-08 08:16:00,38.9,38.9,20.00,West,276,1.0,15.0,-999,0.00,,,0.00,VWS V14.01,2013-03-08 13:16:00,
2013-03-08 08:22:00,38.9,38.9,20.00,WNW,288,0.0,15.0,-999,0.00,,,0.00,VWS V14.01,2013-03-08 13:22:00,
2013-03-08 08:27:00,37.4,37.4,20.00,NE,50,6.0,20.0,-999,0.00,,,0.00,VWS V14.01,2013-03-08 13:27:00,
2013-03-08 08:32:00,39.1,39.1,20.00,North,6,7.0,13.0,-999,0.00,,,0.00,VWS V14.01,2013-03-08 13:32:00,
2013-03-08 08:37:00,37.6,37.6,19.99,WNW,303,4.0,13.0,-999,0.00,,,0.00,VWS V14.01,2013-03-08 13:37:00,
2013-03-08 08:42:00,37.6,37.6,20.00,NE,41,4.0,13.0,-999,0.00,,,0.00,VWS V14.01,2013-03-08 13:42:00,
2013-03-08 08:47:00,39.4,39.4,20.00,NE,34,8.0,16.0,-999,0.00,,,0.00,VWS V14.01,2013-03-08 13:47:00,
2013-03-08 08:52:00,39.9,39.9,20.00,NE,44,7.0,16.0,-999,0.00,,,0.00,VWS V14.01,2013-03-08 13:52:00,
2013-03-08 08:57:00,38.6,38.6,20.00,North,1,9.0,16.0,-999,0.00,,,0.00,VWS V14.01,2013-03-08 13:57:00,
2013-03-08 09:02:00,38.5,38.5,19.99,West,276,1.0,17.0,-999,0.00,,,0.00,VWS V14.01,2013-03-08 14:02:00,
2013-03-08 09:07:00,38.4,38.4,20.00,NNW,346,0.0,17.0,-999,0.00,,,0.00,VWS V14.01,2013-03-08 14:07:00,
2013-03-08 09:12:00,39.5,39.5,20.00,NNE,20,0.0,17.0,-999,0.00,,,0.00,VWS V14.01,2013-03-08 14:12:00,
2013-03-08 09:18:00,39.2,39.2,20.00,ENE,68,1.0,17.0,-999,0.00,,,0.00,VWS V14.01,2013-03-08 14:18:00,
2013-03-08 09:23:00,38.4,38.4,20.00,ENE,58,1.0,17.0,-999,0.00,,,0.00,VWS V14.01,2013-03-08 14:23:00,
2013-03-08 09:28:00,38.9,38.9,20.00,NE,47,10.0,17.0,-999,0.00,,,0.00,VWS V14.01,2013-03-08 14:28:00,
2013-03-08 09:33:00,39.0,39.0,19.99,North,7,14.0,15.0,-999,0.00,,,0.00,VWS V14.01,2013-03-08 14:33:00,
2013-03-08 09:38:00,38.7,38.7,20.00,NW,308,0.0,15.0,-999,0.00,,,0.00,VWS V14.01,2013-03-08 14:38:00,
2013-03-08 09:43:00,38.8,38.8,20.00,NNE,21,13.0,15.0,-999,0.00,,,0.00,VWS V14.01,2013-03-08 14:43:00,
2013-03-08 09:48:00,38.9,38.9,20.00,WNW,286,9.0,18.0,-999,0.00,,,0.00,VWS V14.01,2013-03-08 14:48:00,
2013-03-08 09:53:00,40.0,40.0,19.99,North,0,2.0,18.0,-999,0.00,,,0.00,VWS V14.01,2013-03-08 14:53:00,
2013-03-08 09:58:00,38.9,38.9,20.00,NNE,14,11.0,18.0,-999,0.00,,,0.00,VWS V14.01,2013-03-08 14:58:00,
2013-03-08 10:03:00,38.1,38.1,20.00,NNE,14,0.0,16.0,-999,0.00,,,0.00,VWS V14.01,2013-03-08 15:03:00,
2013-03-08 10:09:00,39.8,39.8,20.00,NNE,23,6.0,20.0,-999,0.00,,,0.00,VWS V14.01,2013-03-08 15:09:00,
2013-03-08 10:14:00,40.4,40.4,20.00,East,81,0.0,20.0,-999,0.00,,,0.00,VWS V14.01,2013-03-08 15:14:00,
2013-03-08 10:19:00,39.8,39.8,20.00,ENE,58,4.0,20.0,-999,0.00,,,0.00,VWS V14.01,2013-03-08 15:19:00,
2013-03-08 10:24:00,40.0,40.0,20.00,ENE,62,9.0,20.0,-999,0.00,,,0.00,VWS V14.01,2013-03-08 15:24:00,
2013-03-08 10:29:00,39.9,39.9,20.00,NNW,346,5.0,20.0,-999,0.00,,,0.00,VWS V14.01,2013-03-08 15:29:00,
2013-03-08 10:34:00,40.7,40.7,20.00,ENE,69,3.0,14.0,-999,0.00,,,0.00,VWS V14.01,2013-03-08 15:34:00,
2013-03-08 10:39:00,41.3,41.3,20.00,North,3,0.0,14.0,-999,0.00,,,0.00,VWS V14.01,2013-03-08 15:39:00,
2013-03-08 10:44:00,41.1,41.1,20.00,NNE,15,7.0,20.0,-999,0.00,,,0.00,VWS V14.01,2013-03-08 15:44:00,
2013-03-08 10:49:00,41.5,41.5,20.00,NE,52,19.0,28.0,-999,0.00,,,0.00,VWS V14.01,2013-03-08 15:49:00,
2013-03-08 10:54:00,40.8,40.8,20.00,NE,49,7.0,28.0,-999,0.00,,,0.00,VWS V14.01,2013-03-08 15:54:00,
2013-03-08 11:00:00,41.2,41.2,20.00,South,179,0.0,28.0,-999,0.00,,,0.00,VWS V14.01,2013-03-08 16:00:00,
2013-03-08 11:05:00,41.7,41.7,20.00,NNE,31,9.0,11.0,-999,0.00,,,0.00,VWS V14.01,2013-03-08 16:05:00,
2013-03-08 11:10:00,41.1,41.1,20.00,ENE,59,6.0,12.0,-999,0.00,,,0.00,VWS V14.01,2013-03-08 16:10:00,
2013-03-08 11:15:00,41.3,41.3,19.99,North,0,0.0,19.0,-999,0.00,,,0.00,VWS V14.01,2013-03-08 16:15:00,
2013-03-08 11:20:00,42.2,42.2,20.00,NE,55,7.0,19.0,-999,0.00,,,0.00,VWS V14.01,2013-03-08 16:20:00,
2013-03-08 11:25:00,42.1,42.1,20.00,North,6,3.0,19.0,-999,0.00,,,0.00,VWS V14.01,2013-03-08 16:25:00,
2013-03-08 11:30:00,42.6,42.6,19.99,North,4,4.0,6.0,-999,0.00,,,0.00,VWS V14.01,2013-03-08 16:30:00,
2013-03-08 11:35:00,42.8,42.8,20.00,NE,43,14.0,14.0,-999,0.00,,,0.00,VWS V14.01,2013-03-08 16:35:00,
2013-03-08 11:40:00,42.4,42.4,20.00,NNE,13,5.0,16.0,-999,0.00,,,0.00,VWS V14.01,2013-03-08 16:40:00,
2013-03-08 11:46:00,42.7,42.7,20.00,NNW,339,8.0,23.0,-999,0.00,,,0.00,VWS V14.01,2013-03-08 16:46:00,
2013-03-08 11:51:00,43.2,43.2,19.99,North,352,0.0,23.0,-999,0.00,,,0.00,VWS V14.01,2013-03-08 16:51:00,
2013-03-08 11:56:00,43.1,43.1,20.00,NNE,27,8.0,23.0,-999,0.00,,,0.00,VWS V14.01,2013-03-08 16:56:00,
2013-03-08 12:01:00,43.3,43.3,20.00,WNW,295,2.0,4.0,-999,0.00,,,0.00,VWS V14.01,2013-03-08 17:01:00,
2013-03-08 12:06:00,43.1,43.1,19.99,ENE,57,4.0,14.0,-999,0.00,,,0.00,VWS V14.01,2013-03-08 17:06:00,
2013-03-08 12:11:00,43.2,43.2,19.99,WSW,257,3.0,16.0,-999,0.00,,,0.00,VWS V14.01,2013-03-08 17:11:00,
2013-03-08 12:16:00,43.3,43.3,20.00,South,178,13.0,16.0,-999,0.00,,,0.00,VWS V14.01,2013-03-08 17:16:00,
2013-03-08 12:21:00,43.4,43.4,20.00,SE,145,2.0,16.0,-999,0.00,,,0.00,VWS V14.01,2013-03-08 17:21:00,
2013-03-08 12:27:00,43.9,43.9,20.00,NNE,23,10.0,16.0,-999,0.00,,,0.00,VWS V14.01,2013-03-08 17:27:00,
2013-03-08 12:32:00,43.4,43.4,20.00,NNE,23,6.0,15.0,-999,0.00,,,0.00,VWS V14.01,2013-03-08 17:32:00,
2013-03-08 12:37:00,44.6,44.6,20.00,North,3,3.0,16.0,-999,0.00,,,0.00,VWS V14.01,2013-03-08 17:37:00,
2013-03-08 12:42:00,45.2,45.2,20.00,North,354,9.0,16.0,-999,0.00,,,0.00,VWS V14.01,2013-03-08 17:42:00,
2013-03-08 12:47:00,44.4,44.4,20.00,WSW,252,6.0,16.0,-999,0.00,,,0.00,VWS V14.01,2013-03-08 17:47:00,
2013-03-08 12:52:00,45.5,45.5,20.00,NE,36,0.0,16.0,-999,0.00,,,0.00,VWS V14.01,2013-03-08 17:52:00,
2013-03-08 12:57:00,44.1,44.1,20.00,West,270,4.0,16.0,-999,0.00,,,0.00,VWS V14.01,2013-03-08 17:57:00,
2013-03-08 13:02:00,45.2,45.2,19.99,West,262,7.0,12.0,-999,0.00,,,0.00,VWS V14.01,2013-03-08 18:02:00,
2013-03-08 13:07:00,44.2,44.2,20.00,NNE,19,4.0,16.0,-999,0.00,,,0.00,VWS V14.01,2013-03-08 18:07:00,
2013-03-08 13:12:00,44.8,44.8,20.00,NNE,23,5.0,16.0,-999,0.00,,,0.00,VWS V14.01,2013-03-08 18:12:00,
2013-03-08 13:17:00,44.6,44.6,20.00,NNW,334,15.0,16.0,-999,0.00,,,0.00,VWS V14.01,2013-03-08 18:17:00,
2013-03-08 13:23:00,45.4,45.4,20.00,NW,324,3.0,16.0,-999,0.00,,,0.00,VWS V14.01,2013-03-08 18:23:00,
2013-03-08 13:28:00,46.6,46.6,20.00,North,350,6.0,16.0,-999,0.00,,,0.00,VWS V14.01,2013-03-08 18:28:00,
2013-03-08 13:33:00,45.5,45.5,20.00,North,5,2.0,19.0,-999,0.00,,,0.00,VWS V14.01,2013-03-08 18:33:00,
2013-03-08 13:38:00,45.6,45.6,19.99,NW,307,9.0,19.0,-999,0.00,,,0.00,VWS V14.01,2013-03-08 18:38:00,
2013-03-08 13:43:00,45.0,45.0,20.00,WSW,247,10.0,19.0,-999,0.00,,,0.00,VWS V14.01,2013-03-08 18:43:00,
2013-03-08 13:48:00,44.9,44.9,20.00,WNW,295,8.0,19.0,-999,0.00,,,0.00,VWS V14.01,2013-03-08 18:48:00,
2013-03-08 13:53:00,45.3,45.3,20.00,ENE,77,3.0,19.0,-999,0.00,,,0.00,VWS V14.01,2013-03-08 18:53:00,
2013-03-08 13:59:00,46.6,46.6,19.99,NNW,328,9.0,19.0,-999,0.00,,,0.00,VWS V14.01,2013-03-08 18:59:00,
2013-03-08 14:04:00,46.5,46.5,20.00,NE,52,7.0,14.0,-999,0.00,,,0.00,VWS V14.01,2013-03-08 19:04:00,
2013-03-08 14:09:00,46.3,46.3,20.00,NE,40,4.0,14.0,-999,0.00,,,0.00,VWS V14.01,2013-03-08 19:09:00,
2013-03-08 14:14:00,47.3,47.3,20.00,NNW,327,3.0,14.0,-999,0.00,,,0.00,VWS V14.01,2013-03-08 19:14:00,
2013-03-08 14:19:00,46.8,46.8,20.00,ENE,70,3.0,14.0,-999,0.00,,,0.00,VWS V14.01,2013-03-08 19:19:00,
2013-03-08 14:24:00,46.9,46.9,20.00,NW,321,5.0,14.0,-999,0.00,,,0.00,VWS V14.01,2013-03-08 19:24:00,
2013-03-08 14:29:00,47.5,47.5,19.99,NNE,22,4.0,14.0,-999,0.00,,,0.00,VWS V14.01,2013-03-08 19:29:00,
2013-03-08 14:34:00,47.1,47.1,19.99,NNW,345,3.0,19.0,-999,0.00,,,0.00,VWS V14.01,2013-03-08 19:34:00,
2013-03-08 14:39:00,46.3,46.3,20.00,NW,314,3.0,19.0,-999,0.00,,,0.00,VWS V14.01,2013-03-08 19:39:00,
2013-03-08 14:44:00,47.0,47.0,20.00,ENE,69,8.0,19.0,-999,0.00,,,0.00,VWS V14.01,2013-03-08 19:44:00,
2013-03-08 14:50:00,47.0,47.0,20.00,North,8,2.0,19.0,-999,0.00,,,0.00,VWS V14.01,2013-03-08 19:50:00,
2013-03-08 14:55:00,48.4,48.4,20.00,North,7,6.0,19.0,-999,0.00,,,0.00,VWS V14.01,2013-03-08 19:55:00,
2013-03-08 15:00:00,47.6,47.6,19.99,West,275,8.0,19.0,-999,0.00,,,0.00,VWS V14.01,2013-03-08 20:00:00,
2013-03-08 15:05:00,48.6,48.6,19.99,NNE,23,1.0,8.0,-999,0.00,,,0.00,VWS V14.01,2013-03-08 20:05:00,
2013-03-08 15:10:00,46.5,46.5,20.00,NNE,27,5.0,16.0,-999,0.00,,,0.00,VWS V14.01,2013-03-08 20:10:00,
2013-03-08 15:15:00,48.1,48.1,20.00,NE,36,7.0,16.0,-999,0.00,,,0.00,VWS V14.01,2013-03-08 20:15:00,
2013-03-08 15:20:00,48.0,48.0,20.00,NW,324,7.0,16.0,-999,0.00,,,0.00,VWS V14.01,2013-03-08 20:20:00,
2013-03-08 15:25:00,48.4,48.4,20.00,West,272,2.0,16.0,-999,0.00,,,0.00,VWS V14.01,2013-03-08 20:25:00,
2013-03-08 15:30:00,49.1,49.1,20.00,NE,45,4.0,5.0,-999,0.00,,,0.00,VWS V14.01,2013-03-08 20:30:00,
2013-03-08 15:35:00,49.5,49.5,19.99,ENE,70,4.0,17.0,-999,0.00,,,0.00,VWS V14.01,2013-03-08 20:35:00,
2013-03-08 15:40:00,48.4,48.4,20.00,SW,222,2.0,17.0,-999,0.00,,,0.00,VWS V14.01,2013-03-08 20:40:00,
2013-03-08 15:45:00,49.4,49.4,20.00,NE,47,5.0,17.0,-999,0.00,,,0.00,VWS V14.01,2013-03-08 20:45:00,
2013-03-08 15:51:00,49.9,49.9,20.00,NNE,16,0.0,17.0,-999,0.00,,,0.00,VWS V14.01,2013-03-08 20:51:00,
2013-03-08 15:56:00,49.2,49.2,20.00,NNE,20,3.0,17.0,-999,0.00,,,0.00,VWS V14.01,2013-03-08 20:56:00,
2013-03-08 16:01:00,48.9,48.9,20.00,ENE,64,5.0,9.0,-999,0.00,,,0.00,VWS V14.01,2013-03-08 21:01:00,
2013-03-08 16:06:00,48.4,48.4,20.00,WSW,241,0.0,9.0,-999,0.00,,,0.00,VWS V14.01,2013-03-08 21:06:00,
2013-03-08 16:11:00,49.6,49.6,20.00,NNE,28,5.0,10.0,-999,0.00,,,0.00,VWS V14.01,2013-03-08 21:11:00,
2013-03-08 16:16:00,48.7,48.7,20.00,NW,317,1.0,10.0,-999,0.00,,,0.00,VWS V14.01,2013-03-08 21:16:00,
2013-03-08 16:21:00,49.8,49.8,20.00,ENE,60,8.0,14.0,-999,0.00,,,0.00,VWS V14.01,2013-03-08 21:21:00,
2013-03-08 16:26:00,49.1,49.1,20.00,East,86,3.0,14.0,-999,0.00,,,0.00,VWS V14.01,2013-03-08 21:26:00,
2013-03-08 16:32:00,49.2,49.2,20.00,NE,54,0.0,7.0,-999,0.00,,,0.00,VWS V14.01,2013-03-08 21:32:00,
2013-03-08 16:37:00,48.3,48.3,20.00,North,0,1.0,7.0,-999,0.00,,,0.00,VWS V14.01,2013-03-08 21:37:00,
2013-03-08 16:42:00,47.0,47.0,19.99,NE,45,5.0,7.0,-999,0.00,,,0.00,VWS V14.01,2013-03-08 21:42:00,
2013-03-08 16:47:00,47.4,47.4,20.00,North,0,2.0,7.0,-999,0.00,,,0.00,VWS V14.01,2013-03-08 21:47:00,
2013-03-08 16:52:00,48.6,48.6,19.99,ENE,76,2.0,7.0,-999,0.00,,,0.00,VWS V14.01,2013-03-08 21:52:00,
2013-03-08 16:57:00,47.6,47.6,20.00,NE,45,3.0,11.0,-999,0.00,,,0.00,VWS V14.01,2013-03-08 21:57:00,
2013-03-08 17:02:00,48.3,48.3,20.00,NE,40,3.0,11.0,-999,0.00,,,0.00,VWS V14.01,2013-03-08 22:02:00,
2013-03-08 17:08:00,45.9,45.9,20.00,NNE,21,4.0,11.0,-999,0.00,,,0.00,VWS V14.01,2013-03-08 22:08:00,
2013-03-08 17:13:00,45.9,45.9,20.00,WNW,285,0.0,11.0,-999,0.00,,,0.00,VWS V14.01,2013-03-08 22:13:00,
2013-03-08 17:18:00,45.7,45.7,20.00,SW,218,0.0,11.0,-999,0.00,,,0.00,VWS V14.01,2013-03-08 22:18:00,
2013-03-08 17:23:00,45.3,45.3,19.99,West,261,4.0,17.0,-999,0.00,,,0.00,VWS V14.01,2013-03-08 22:23:00,
2013-03-08 17:28:00,46.6,46.6,19.99,WSW,255,6.0,17.0,-999,0.00,,,0.00,VWS V14.01,2013-03-08 22:28:00,
2013-03-08 17:33:00,46.3,46.3,20.00,WSW,247,3.0,9.0,-999,0.00,,,0.00,VWS V14.01,2013-03-08 22:33:00,
2013-03-08 17:38:00,45.7,45.7,20.00,WNW,283,4.0,11.0,-999,0.00,,,0.00,VWS V14.01,2013-03-08 22:38:00,
2013-03-08 17:43:00,45.9,45.9,20.00,West,260,0.0,11.0,-999,0.00,,,0.00,VWS V14.01,2013-03-08 22:43:00,
2013-03-08 17:48:00,47.0,47.0,20.00,SW,228,5.0,11.0,-999,0.00,,,0.00,VWS V14.01,2013-03-08 22:48:00,
2013-03-08 17:54:00,45.3,45.3,20.00,NNE,25,0.0,13.0,-999,0.00,,,0.00,VWS V14.01,2013-03-08 22:54:00,
2013-03-08 17:59:00,46.3,46.3,20.00,SSE,147,1.0,13.0,-999,0.00,,,0.00,VWS V14.01,2013-03-08 22:59:00,
2013-03-08 18:04:00,47.0,47.0,20.00,WNW,286,3.0,8.0,-999,0.00,,,0.00,VWS V14.01,2013-03-08 23:04:00,
2013-03-08 18:09:00,46.3,46.3,20.00,North,10,2.0,10.0,-999,0.00,,,0.00,VWS V14.01,2013-03-08 23:09:00,
2013-03-08 18:14:00,45.7,45.7,20.00,NNW,337,2.0,12.0,-999,0.00,,,0.00,VWS V14.01,2013-03-08 23:14:00,
2013-03-08 18:19:00,45.0,45.0,20.00,WNW,292,4.0,12.0,-999,0.00,,,0.00,VWS V14.01,2013-03-08 23:19:00,
2013-03-08 18:25:00,44.7,44.7,20.00,WNW,287,2.0,12.0,-999,0.00,,,0.00,VWS V14.01,2013-03-08 23:25:00,
2013-03-08 18:30:00,45.1,45.1,20.00,NNE,15,1.0,12.0,-999,0.00,,,0.00,VWS V14.01,2013-03-08 23:30:00,
2013-03-08 18:35:00,44.5,44.5,19.99,North,2,0.0,2.0,-999,0.00,,,0.00,VWS V14.01,2013-03-08 23:35:00,
2013-03-08 18:40:00,45.1,45.1,20.00,ENE,66,0.0,5.0,-999,0.00,,,0.00,VWS V14.01,2013-03-08 23:40:00,
2013-03-08 18:45:00,44.8,44.8,20.00,WSW,249,4.0,8.0,-999,0.00,,,0.00,VWS V14.01,2013-03-08 23:45:00,
2013-03-08 18:50:00,44.7,44.7,20.00,WSW,237,0.0,8.0,-999,0.00,,,0.00,VWS V14.01,2013-03-08 23:50:00,
2013-03-08 18:55:00,46.0,46.0,19.99,North,10,0.0,8.0,-999,0.00,,,0.00,VWS V14.01,2013-03-08 23:55:00,
2013-03-08 19:00:00,45.9,45.9,20.00,WNW,299,2.0,8.0,-999,0.00,,,0.00,VWS V14.01,2013-03-09 00:00:00,
2013-03-08 19:05:00,45.5,45.5,19.99,NNE,12,5.0,13.0,-999,0.00,,,0.00,VWS V14.01,2013-03-09 00:05:00,
2013-03-08 19:10:00,45.2,45.2,20.00,West,279,0.0,13.0,-999,0.00,,,0.00,VWS V14.01,2013-03-09 00:10:00,
2013-03-08 19:15:00,45.0,45.0,20.00,WNW,292,2.0,13.0,-999,0.00,,,0.00,VWS V14.01,2013-03-09 00:15:00,
2013-03-08 19:21:00,44.5,44.5,20.00,NW,326,1.0,13.0,-999,0.00,,,0.00,VWS V14.01,2013-03-09 00:21:00,
2013-03-08 19:26:00,44.4,44.4,20.00,NW,309,0.0,13.0,-999,0.00,,,0.00,VWS V14.01,2013-03-09 00:26:00,
2013-03-08 19:31:00,44.2,44.2,20.00,West,275,2.0,5.0,-999,0.00,,,0.00,VWS V14.01,2013-03-09 00:31:00,
2013-03-08 19:36:00,44.5,44.5,20.00,SW,233,0.0,6.0,-999,0.00,,,0.00,VWS V14.01,2013-03-09 00:36:00,
2013-03-08 19:41:00,44.4,44.4,20.00,West,260,3.0,9.0,-999,0.00,,,0.00,VWS V14.01,2013-03-09 00:41:00,
2013-03-08 19:46:00,44.2,44.2,19.99,NW,311,4.0,10.0,-999,0.00,,,0.00,VWS V14.01,2013-03-09 00:46:00,
2013-03-08 19:52:00,44.1,44.1,19.99,WSW,247,7.0,12.0,-999,0.00,,,0.00,VWS V14.01,2013-03-09 00:52:00,
2013-03-08 19:57:00,43.9,43.9,20.00,North,0,3.0,12.0,-999,0.00,,,0.00,VWS V14.01,2013-03-09 00:57:00,
2013-03-08 20:02:00,44.7,44.7,20.00,SW,222,3.0,4.0,-999,0.00,,,0.00,VWS V14.01,2013-03-09 01:02:00,
2013-03-08 20:07:00,43.9,43.9,20.00,North,356,3.0,13.0,-999,0.00,,,0.00,VWS V14.01,2013-03-09 01:07:00,
2013-03-08 20:12:00,43.0,43.0,19.99,NW,313,9.0,13.0,-999,0.00,,,0.00,VWS V14.01,2013-03-09 01:12:00,
2013-03-08 20:17:00,42.8,42.8,20.00,WNW,283,0.0,13.0,-999,0.00,,,0.00,VWS V14.01,2013-03-09 01:17:00,
2013-03-08 20:22:00,42.6,42.6,20.00,NNW,344,5.0,13.0,-999,0.00,,,0.00,VWS V14.01,2013-03-09 01:22:00,
2013-03-08 20:27:00,42.5,42.5,20.00,WNW,283,1.0,13.0,-999,0.00,,,0.00,VWS V14.01,2013-03-09 01:27:00,
2013-03-08 20:33:00,42.4,42.4,20.00,WNW,287,0.0,11.0,-999,0.00,,,0.00,VWS V14.01,2013-03-09 01:33:00,
2013-03-08 20:38:00,41.8,41.8,19.99,NW,308,0.0,11.0,-999,0.00,,,0.00,VWS V14.01,2013-03-09 01:38:00,
2013-03-08 20:43:00,41.7,41.7,19.99,West,271,3.0,11.0,-999,0.00,,,0.00,VWS V14.01,2013-03-09 01:43:00,
2013-03-08 20:48:00,41.7,41.7,20.00,West,280,4.0,11.0,-999,0.00,,,0.00,VWS V14.01,2013-03-09 01:48:00,
2013-03-08 20:53:00,41.5,41.5,20.00,West,261,3.0,12.0,-999,0.00,,,0.00,VWS V14.01,2013-03-09 01:53:00,
2013-03-08 20:58:00,41.3,41.3,20.00,West,281,6.0,12.0,-999,0.00,,,0.00,VWS V14.01,2013-03-09 01:58:00,
2013-03-08 21:03:00,41.0,41.0,20.00,WNW,292,0.0,10.0,-999,0.00,,,0.00,VWS V14.01,2013-03-09 02:03:00,
2013-03-08 21:08:00,40.9,40.9,19.99,NW,315,7.0,10.0,-999,0.00,,,0.00,VWS V14.01,2013-03-09 02:08:00,
2013-03-08 21:13:00,40.9,40.9,19.99,NNW,328,9.0,11.0,-999,0.00,,,0.00,VWS V14.01,2013-03-09 02:13:00,
2013-03-08 21:18:00,40.9,40.9,19.99,NNW,341,10.0,12.0,-999,0.00,,,0.00,VWS V14.01,2013-03-09 02:18:00,
2013-03-08 21:24:00,40.8,40.8,20.00,West,275,4.0,12.0,-999,0.00,,,0.00,VWS V14.01,2013-03-09 02:24:00,
2013-03-08 21:29:00,40.6,40.6,19.99,WNW,293,3.0,12.0,-999,0.00,,,0.00,VWS V14.01,2013-03-09 02:29:00,
2013-03-08 21:34:00,40.6,40.6,20.00,West,268,7.0,11.0,-999,0.00,,,0.00,VWS V14.01,2013-03-09 02:34:00,
2013-03-08 21:39:00,40.4,40.4,20.00,NW,319,6.0,11.0,-999,0.00,,,0.00,VWS V14.01,2013-03-09 02:39:00,
2013-03-08 21:44:00,40.3,40.3,20.00,North,0,2.0,12.0,-999,0.00,,,0.00,VWS V14.01,2013-03-09 02:44:00,
2013-03-08 21:49:00,40.3,40.3,20.00,WNW,295,4.0,12.0,-999,0.00,,,0.00,VWS V14.01,2013-03-09 02:49:00,
2013-03-08 21:54:00,40.1,40.1,19.99,NW,305,4.0,13.0,-999,0.00,,,0.00,VWS V14.01,2013-03-09 02:54:00,
2013-03-08 22:00:00,40.1,40.1,20.00,WSW,255,10.0,14.0,-999,0.00,,,0.00,VWS V14.01,2013-03-09 03:00:00,
2013-03-08 22:05:00,39.8,39.8,20.00,WNW,283,6.0,11.0,-999,0.00,,,0.00,VWS V14.01,2013-03-09 03:05:00,
2013-03-08 22:10:00,39.8,39.8,20.00,WNW,282,6.0,16.0,-999,0.00,,,0.00,VWS V14.01,2013-03-09 03:10:00,
2013-03-08 22:15:00,39.9,39.9,20.00,West,274,7.0,16.0,-999,0.00,,,0.00,VWS V14.01,2013-03-09 03:15:00,
2013-03-08 22:20:00,39.7,39.7,20.00,WNW,295,5.0,16.0,-999,0.00,,,0.00,VWS V14.01,2013-03-09 03:20:00,
2013-03-08 22:25:00,39.5,39.5,19.99,WSW,254,7.0,16.0,-999,0.00,,,0.00,VWS V14.01,2013-03-09 03:25:00,
2013-03-08 22:30:00,39.4,39.4,20.00,West,271,5.0,8.0,-999,0.00,,,0.00,VWS V14.01,2013-03-09 03:30:00,
2013-03-08 22:36:00,39.3,39.3,20.00,West,276,4.0,13.0,-999,0.00,,,0.00,VWS V14.01,2013-03-09 03:36:00,
2013-03-08 22:41:00,39.4,39.4,20.00,WNW,284,2.0,13.0,-999,0.00,,,0.00,VWS V14.01,2013-03-09 03:41:00,
2013-03-08 22:46:00,39.2,39.2,20.00,West,268,5.0,13.0,-999,0.00,,,0.00,VWS V14.01,2013-03-09 03:46:00,
2013-03-08 22:51:00,39.2,39.2,19.99,West,279,3.0,13.0,-999,0.00,,,0.00,VWS V14.01,2013-03-09 03:51:00,
2013-03-08 22:56:00,39.0,39.0,20.00,West,260,7.0,13.0,-999,0.00,,,0.00,VWS V14.01,2013-03-09 03:56:00,
2013-03-08 23:00:00,38.5,38.5,20.00,SSE,152,0.0,6.0,-999,0.00,,,0.00,VWS V14.01,2013-03-09 04:00:00,
2013-03-08 23:01:00,39.1,39.1,19.99,NE,49,1.0,5.0,-999,0.00,,,0.00,VWS V14.01,2013-03-09 04:01:00,
2013-03-08 23:06:00,39.0,39.0,19.99,West,281,4.0,9.0,-999,0.00,,,0.00,VWS V14.01,2013-03-09 04:06:00,
2013-03-08 23:11:00,39.4,39.4,20.00,West,268,0.0,9.0,-999,0.00,,,0.00,VWS V14.01,2013-03-09 04:11:00,
2013-03-08 23:16:00,39.9,39.9,19.99,NW,324,3.0,9.0,-999,0.00,,,0.00,VWS V14.01,2013-03-09 04:16:00,
2013-03-08 23:22:00,39.1,39.1,20.00,WNW,285,0.0,10.0,-999,0.00,,,0.00,VWS V14.01,2013-03-09 04:22:00,
2013-03-08 23:27:00,38.9,38.9,20.00,West,261,0.0,10.0,-999,0.00,,,0.00,VWS V14.01,2013-03-09 04:27:00,
2013-03-08 23:30:00,38.8,38.8,20.00,NW,315,2.0,10.0,-999,0.00,,,0.00,VWS V14.01,2013-03-09 04:30:00,
2013-03-08 23:32:00,39.3,39.3,20.00,South,173,0.0,3.0,-999,0.00,,,0.00,VWS V14.01,2013-03-09 04:32:00,
2013-03-08 23:37:00,38.6,38.6,20.00,SE,125,0.0,4.0,-999,0.00,,,0.00,VWS V14.01,2013-03-09 04:37:00,
2013-03-08 23:42:00,38.3,38.3,20.00,ENE,74,0.0,5.0,-999,0.00,,,0.00,VWS V14.01,2013-03-09 04:42:00,
2013-03-08 23:47:00,38.7,38.7,20.00,SSE,154,4.0,6.0,-999,0.00,,,0.00,VWS V14.01,2013-03-09 04:47:00,
2013-03-08 23:52:00,38.9,38.9,19.99,ESE,119,0.0,6.0,-999,0.00,,,0.00,VWS V14.01,2013-03-09 04:52:00,
2013-03-08 23:57:00,39.3,39.3,20.00,SSE,150,0.0,6.0,-999,0.00,,,0.00,VWS V14.01,2013-03-09 04:57:00,